Weather in Severynivka

Ukraine / Odesa District     46°47′52″N   30°36′26″E
temp.,
°C
wind,
m/s
gust,
m/s
humid.,
%
clouds,
%
prec.,
mm/h
press.,
hPa
HPBL,
m
9 may, sun
sun900:00+6nw410755 0.0 1020316
03:00+5nw410810 0.0 1021274
06:00+4nw410840 0.0 1023256
09:00+10nnw69621 0.0 10251004
12:00+14nnw784344 0.0 10252279
15:00+15nw573698 0.0 10252641
18:00+15nnw553772 0.0 10252200
21:00+10nnw22535 0.0 102710
10 may, mon
mon1000:00+9nne22573 0.0 102711
03:00+7ssw11630 0.0 102810
06:00+7ene11650 0.0 102810
09:00+13ese33540 0.0 1028465
12:00+16se21400 0.0 10271743
15:00+18se11361 0.0 10252049
18:00+18n12374 0.0 10241892
21:00+11sw33661 0.0 102436
11 may, tue
tue1100:00+10nw22711 0.0 102421
03:00+9n22670 0.0 102319
06:00+8n35670 0.0 102286
09:00+13n57520 0.0 1021665
12:00+17n664017 0.0 10191248
15:00+19n67486 0.0 10171331
18:00+19n5657100 0.0 10161230
21:00+14ne51074100 0.1 1016487
12 may, wed
wed1200:00+13ene368289 0.1 1015445
03:00+10ne358434 0.8 1014189
06:00+7ne36870 0.0 1014141
09:00+12ne34673 0.0 1013720
12:00+14ene115197 0.0 10121692
15:00+15ese3252100 0.0 10121183
18:00+13s446645 0.0 1012587
21:00+12se366671 0.0 1012296
13 may, thu
thu1300:00+10se379371 0.0 1012144
03:00+10se3894100 0.0 1011184
06:00+10se3890100 0.0 1011207
09:00+15se686975 0.0 1010804
12:00+18se78584 0.0 10101124
15:00+19sse78465 0.0 10091054
18:00+17sse675885 0.0 1008704
21:00+12sse35865 0.0 100999